Flag for U.S.A. Weather past 2 weeks in Greenville, South Carolina, U.S.A.

Now
79 °F

Clear.


Feels Like: 82 °F
Forecast: 70 / 95 °F
Wind: 5 mph from South

Location: Greenville Downtown Airport

Current Time: Aug 4, 2015 at 1:28:12 AM

Latest Report: Aug 4, 2015 at 12:53 AM


Visibility: 10 mi

Pressure: 29.96 "Hg

Humidity: 72%

Dew point: 69 °F

Location of GreenvilleLocation

Historic Weather in Greenville — Graph

°F

Greenville temperature yesterday

Maximum temperature yesterday: 94 °F (at 2:53 PM)
Minimum temperature yesterday: 73 °F (at 5:53 AM)
Average temperature yesterday: 83 °F

Past Weeks' High & Low Weather Summary

 TemperatureHumidityPressure
High96 °F (Jul 30, 4:53 PM)91% (Jul 29, 5:53 AM)30.03 "Hg (Jul 29, 5:53 AM)
Low70 °F (Aug 2, 6:53 AM)21% (Aug 1, 5:53 PM)29.74 "Hg (Jul 21, 5:53 PM)
Average83 °F58%29.93 "Hg
* Reported Jul 19 11:53 PM — Aug 3 11:53 PM, Greenville, Weather by CustomWeather, © 2015

Note: Actual official high and low records may vary slightly from our data, if they occured in-between our weather recording intervals... More about our weather records

Advertising

Greenville weather history for previous 24 hours

 ConditionsComfort  
Time TempWeatherWind HumidityBarometerVisibility
11:53 PM
Mon, Aug 3
81 °FClear.5 mph65%29.95 "Hg10 mi
10:53 PM82 °FClear.8 mph58%29.92 "Hg10 mi
9:53 PM86 °FClear.3 mph45%29.90 "Hg10 mi
8:53 PM87 °FSunny.5 mph42%29.90 "Hg10 mi
7:53 PM90 °FPassing clouds.5 mph35%29.89 "Hg10 mi
6:53 PM91 °FSunny.5 mph36%29.88 "Hg10 mi
5:53 PM92 °FPartly sunny.5 mph32%29.88 "Hg10 mi
4:53 PM94 °FSunny.5 mph32%29.88 "Hg10 mi
3:53 PM93 °FPassing clouds.7 mph33%29.88 "Hg10 mi
2:53 PM94 °FPartly sunny.8 mph35%29.90 "Hg10 mi
1:53 PM91 °FSunny.No wind38%29.91 "Hg10 mi
12:53 PM88 °FSunny.3 mph48%29.93 "Hg10 mi
11:53 AM86 °FSunny.No wind57%29.95 "Hg10 mi
10:53 AM83 °FPassing clouds.5 mph63%29.96 "Hg10 mi
9:53 AM79 °FSunny.3 mph72%29.95 "Hg10 mi
8:53 AM78 °FPassing clouds.No wind74%29.94 "Hg10 mi
7:53 AM74 °FSunny.5 mph79%29.93 "Hg10 mi
6:53 AM73 °FClear.3 mph79%29.91 "Hg10 mi
5:53 AM73 °FClear.No wind81%29.89 "Hg10 mi
4:53 AM74 °FClear.No wind76%29.89 "Hg10 mi
3:53 AM75 °FClear.3 mph74%29.89 "Hg10 mi
2:53 AM76 °FClear.5 mph72%29.90 "Hg10 mi
1:53 AM77 °FClear.3 mph71%29.91 "Hg10 mi
Weather by CustomWeather, © 2015

See weather overviewHow to use our weather pages